DLH066 EDDF-EDDC

Flight info

Callsign DLH066
Flight time 0h 45m
Altitude 23000
Route SULUS4D/07C SULUS L984 KULOK Z715 ABKIS/N0344F220 Q240 DRN
Aircraft A320/M-SDE2E3FGIJ1LORWXYZ/HB1

Departure

Time 2026-04-14 12:41
Airport Frankfurt Main Airport (EDDF)

Arrival

Time 2026-04-14 13:27
Airport Dresden Airport (EDDC)
Time Latitude Longitude Altitude Speed Heading
2026-04-14 12:24 50.04752 8.56884 356 ft 0 kts 294°
2026-04-14 12:33 50.04745 8.56910 358 ft 4 kts 293°
2026-04-14 12:33 50.04734 8.56947 363 ft 4 kts 291°
2026-04-14 12:34 50.04732 8.56982 362 ft 4 kts 232°
2026-04-14 12:34 50.04749 8.57002 365 ft 2 kts 204°
2026-04-14 12:34 50.04772 8.57019 363 ft 4 kts 205°
2026-04-14 12:34 50.04794 8.57035 356 ft 1 kts 205°
2026-04-14 12:35 50.04795 8.57035 356 ft 0 kts 205°
2026-04-14 12:36 50.04794 8.57035 356 ft 2 kts 205°
2026-04-14 12:37 50.04715 8.56977 359 ft 18 kts 206°
2026-04-14 12:37 50.04598 8.56907 356 ft 17 kts 192°
2026-04-14 12:37 50.04496 8.56871 359 ft 14 kts 193°
2026-04-14 12:37 50.04412 8.56844 364 ft 11 kts 188°
2026-04-14 12:38 50.04239 8.56747 358 ft 20 kts 240°
2026-04-14 12:38 50.04183 8.56512 355 ft 26 kts 248°
2026-04-14 12:38 50.04113 8.56216 353 ft 31 kts 250°
2026-04-14 12:39 50.04033 8.55888 352 ft 33 kts 250°
2026-04-14 12:39 50.03951 8.55540 352 ft 35 kts 249°
2026-04-14 12:39 50.03866 8.55184 355 ft 36 kts 250°
2026-04-14 12:39 50.03784 8.54845 349 ft 30 kts 250°
2026-04-14 12:40 50.03667 8.54714 346 ft 22 kts 148°
2026-04-14 12:40 50.03587 8.54828 344 ft 10 kts 59°
2026-04-14 12:40 50.03619 8.54963 343 ft 25 kts 71°
2026-04-14 12:40 50.03778 8.55616 349 ft 101 kts 69°
2026-04-14 12:41 50.04096 8.56948 388 ft 156 kts 67°
2026-04-14 12:41 50.04484 8.58604 889 ft 170 kts 67°
2026-04-14 12:41 50.04874 8.60307 1740 ft 169 kts 69°
2026-04-14 12:41 50.05282 8.62125 2271 ft 189 kts 69°
2026-04-14 12:42 50.05740 8.64170 2677 ft 212 kts 69°
2026-04-14 12:42 50.06243 8.66416 3401 ft 223 kts 69°
2026-04-14 12:42 50.06754 8.68712 4371 ft 225 kts 69°
2026-04-14 12:42 50.07110 8.71107 5313 ft 231 kts 83°
2026-04-14 12:43 50.07010 8.73714 5916 ft 255 kts 97°
2026-04-14 12:43 50.06679 8.76522 6615 ft 269 kts 97°
2026-04-14 12:43 50.06339 8.79425 7482 ft 276 kts 98°
2026-04-14 12:43 50.05992 8.82396 8390 ft 281 kts 99°
2026-04-14 12:44 50.05777 8.85404 9284 ft 287 kts 90°
2026-04-14 12:44 50.05826 8.88543 10143 ft 294 kts 90°
2026-04-14 12:44 50.05882 8.91796 10689 ft 312 kts 89°
2026-04-14 12:45 50.06002 8.98888 11882 ft 337 kts 89°
2026-04-14 12:45 50.06066 9.02565 12683 ft 342 kts 89°
2026-04-14 12:45 50.06127 9.06294 13495 ft 347 kts 89°
2026-04-14 12:45 50.06186 9.10088 14269 ft 352 kts 89°
2026-04-14 12:46 50.06241 9.13874 14969 ft 356 kts 89°
2026-04-14 12:46 50.06298 9.17762 15674 ft 360 kts 89°
2026-04-14 12:46 50.06355 9.21695 16408 ft 364 kts 89°
2026-04-14 12:46 50.06412 9.25604 17145 ft 368 kts 89°
2026-04-14 12:47 50.06470 9.29619 17871 ft 372 kts 89°
2026-04-14 12:47 50.06526 9.33661 18559 ft 376 kts 89°
2026-04-14 12:47 50.06576 9.37746 19162 ft 379 kts 90°
2026-04-14 12:47 50.06622 9.41873 19770 ft 383 kts 90°
2026-04-14 12:48 50.06669 9.46036 20375 ft 386 kts 90°
2026-04-14 12:48 50.06719 9.50246 20988 ft 390 kts 90°
2026-04-14 12:48 50.06768 9.54500 21591 ft 394 kts 90°
2026-04-14 12:48 50.06817 9.58780 22188 ft 397 kts 90°
2026-04-14 12:49 50.06862 9.63058 22776 ft 401 kts 90°
2026-04-14 12:49 50.06906 9.67413 23102 ft 403 kts 90°
2026-04-14 12:49 50.06949 9.71733 23163 ft 391 kts 90°
2026-04-14 12:49 50.06990 9.75868 23168 ft 376 kts 90°
2026-04-14 12:50 50.07028 9.79929 23169 ft 372 kts 91°
2026-04-14 12:50 50.07101 9.87977 23169 ft 371 kts 91°
2026-04-14 12:50 50.07137 9.91944 23177 ft 371 kts 91°
2026-04-14 12:51 50.07167 9.95955 23177 ft 371 kts 91°
2026-04-14 12:51 50.07192 9.99975 23176 ft 371 kts 91°
2026-04-14 12:51 50.07217 10.03981 23176 ft 371 kts 91°
2026-04-14 12:51 50.07243 10.07998 23177 ft 371 kts 91°
2026-04-14 12:52 50.07268 10.12013 23178 ft 370 kts 91°
2026-04-14 12:52 50.07290 10.16022 23183 ft 369 kts 91°
2026-04-14 12:52 50.07312 10.20023 23185 ft 369 kts 91°
2026-04-14 12:52 50.07333 10.24019 23186 ft 368 kts 91°
2026-04-14 12:53 50.07352 10.28002 23186 ft 368 kts 91°
2026-04-14 12:53 50.07370 10.31997 23185 ft 368 kts 91°
2026-04-14 12:53 50.07391 10.35975 23185 ft 368 kts 91°
2026-04-14 12:53 50.07414 10.39921 23183 ft 368 kts 91°
2026-04-14 12:54 50.07437 10.43904 23183 ft 368 kts 91°
2026-04-14 12:54 50.07455 10.47905 23176 ft 368 kts 91°
2026-04-14 12:54 50.07465 10.50539 23176 ft 368 kts 91°
2026-04-14 12:54 50.07482 10.55826 23170 ft 368 kts 91°
2026-04-14 12:55 50.07493 10.59810 23179 ft 367 kts 91°
2026-04-14 12:55 50.07498 10.62501 23191 ft 367 kts 91°
2026-04-14 12:55 50.07505 10.66464 23192 ft 366 kts 91°
2026-04-14 12:55 50.07511 10.70382 23187 ft 365 kts 91°
2026-04-14 12:56 50.07515 10.74332 23190 ft 365 kts 91°
2026-04-14 12:56 50.07520 10.78288 23190 ft 364 kts 91°
2026-04-14 12:56 50.07525 10.82235 23187 ft 364 kts 91°
2026-04-14 12:56 50.07529 10.86179 23180 ft 364 kts 91°
2026-04-14 12:57 50.07530 10.90115 23179 ft 364 kts 91°
2026-04-14 12:57 50.07530 10.94058 23177 ft 363 kts 91°
2026-04-14 12:57 50.07527 10.97992 23173 ft 363 kts 92°
2026-04-14 12:57 50.07521 11.01923 23176 ft 363 kts 91°
2026-04-14 12:58 50.07516 11.05858 23170 ft 364 kts 91°
2026-04-14 12:58 50.07512 11.09797 23170 ft 364 kts 91°
2026-04-14 12:58 50.07505 11.13740 23171 ft 364 kts 91°
2026-04-14 12:58 50.07494 11.17638 23135 ft 364 kts 91°
2026-04-14 12:59 50.07491 11.21635 22405 ft 369 kts 91°
2026-04-14 12:59 50.07506 11.25568 22581 ft 363 kts 91°
2026-04-14 12:59 50.07494 11.29519 23082 ft 366 kts 91°
2026-04-14 12:59 50.07467 11.33475 23154 ft 364 kts 92°
2026-04-14 13:00 50.07437 11.37406 23157 ft 363 kts 92°
2026-04-14 13:00 50.07409 11.41346 23155 ft 363 kts 92°
2026-04-14 13:00 50.07383 11.45279 23156 ft 363 kts 91°
2026-04-14 13:00 50.07356 11.49202 23149 ft 363 kts 92°
2026-04-14 13:01 50.07330 11.53143 23158 ft 364 kts 92°
2026-04-14 13:01 50.07345 11.57093 23160 ft 365 kts 86°
2026-04-14 13:01 50.07798 11.60992 23154 ft 366 kts 73°
2026-04-14 13:01 50.08762 11.64605 23156 ft 367 kts 61°
2026-04-14 13:02 50.10213 11.67874 23160 ft 367 kts 49°
2026-04-14 13:02 50.11957 11.70796 23162 ft 367 kts 46°
2026-04-14 13:02 50.13708 11.73706 23163 ft 367 kts 47°
2026-04-14 13:02 50.15458 11.76626 23164 ft 367 kts 47°
2026-04-14 13:03 50.17182 11.79503 23163 ft 367 kts 47°
2026-04-14 13:03 50.18862 11.82501 23160 ft 367 kts 54°
2026-04-14 13:03 50.20241 11.85850 23162 ft 367 kts 59°
2026-04-14 13:03 50.21570 11.89244 23161 ft 367 kts 59°
2026-04-14 13:04 50.22905 11.92645 23162 ft 367 kts 59°
2026-04-14 13:04 50.24245 11.96059 23160 ft 367 kts 59°
2026-04-14 13:04 50.25585 11.99470 23164 ft 367 kts 59°
2026-04-14 13:04 50.26930 12.02858 23167 ft 367 kts 57°
2026-04-14 13:05 50.28321 12.06146 23160 ft 367 kts 55°
2026-04-14 13:05 50.29779 12.09440 23156 ft 368 kts 54°
2026-04-14 13:05 50.31258 12.12729 23155 ft 368 kts 54°
2026-04-14 13:05 50.32732 12.16010 23154 ft 369 kts 54°
2026-04-14 13:06 50.34203 12.19320 23157 ft 369 kts 57°
2026-04-14 13:06 50.35469 12.22824 23158 ft 369 kts 62°
2026-04-14 13:06 50.36669 12.26384 23160 ft 370 kts 62°
2026-04-14 13:06 50.37856 12.29916 23155 ft 370 kts 62°
2026-04-14 13:07 50.39053 12.33489 23158 ft 370 kts 62°
2026-04-14 13:07 50.40248 12.37058 23164 ft 370 kts 62°
2026-04-14 13:07 50.41445 12.40634 23165 ft 370 kts 62°
2026-04-14 13:07 50.42638 12.44202 23166 ft 370 kts 62°
2026-04-14 13:08 50.43831 12.47776 23167 ft 370 kts 62°
2026-04-14 13:08 50.45023 12.51350 23159 ft 370 kts 62°
2026-04-14 13:08 50.46215 12.54926 23159 ft 369 kts 62°
2026-04-14 13:08 50.47407 12.58500 23162 ft 369 kts 62°
2026-04-14 13:09 50.48598 12.62077 23149 ft 369 kts 63°
2026-04-14 13:09 50.49778 12.65630 23149 ft 369 kts 63°
2026-04-14 13:09 50.50965 12.69212 23150 ft 370 kts 63°
2026-04-14 13:09 50.52152 12.72800 23102 ft 369 kts 63°
2026-04-14 13:10 50.53333 12.76371 22818 ft 365 kts 63°
2026-04-14 13:10 50.54495 12.79890 22545 ft 362 kts 63°
2026-04-14 13:10 50.55655 12.83402 22279 ft 360 kts 63°
2026-04-14 13:10 50.56803 12.86886 22014 ft 358 kts 63°
2026-04-14 13:11 50.57929 12.90314 21745 ft 356 kts 63°
2026-04-14 13:11 50.59065 12.93772 21477 ft 355 kts 63°
2026-04-14 13:11 50.60194 12.97217 21226 ft 353 kts 63°
2026-04-14 13:11 50.61316 13.00640 20944 ft 349 kts 63°
2026-04-14 13:12 50.62428 13.04034 20539 ft 347 kts 63°
2026-04-14 13:12 50.63557 13.07377 20110 ft 346 kts 60°
2026-04-14 13:12 50.64774 13.10642 19680 ft 345 kts 58°
2026-04-14 13:12 50.66048 13.13862 19257 ft 344 kts 57°
2026-04-14 13:13 50.67315 13.16994 18845 ft 344 kts 57°
2026-04-14 13:13 50.68606 13.20182 18409 ft 345 kts 57°
2026-04-14 13:13 50.69889 13.23383 17941 ft 345 kts 58°
2026-04-14 13:13 50.71159 13.26591 17513 ft 343 kts 58°
2026-04-14 13:14 50.72415 13.29791 17103 ft 342 kts 58°
2026-04-14 13:14 50.73659 13.32980 16691 ft 340 kts 58°
2026-04-14 13:14 50.74891 13.36159 16294 ft 338 kts 58°
2026-04-14 13:14 50.76112 13.39318 15892 ft 337 kts 58°
2026-04-14 13:15 50.77331 13.42471 15492 ft 335 kts 58°
2026-04-14 13:15 50.78547 13.45615 15093 ft 334 kts 58°
2026-04-14 13:15 50.79754 13.48739 14715 ft 333 kts 58°
2026-04-14 13:15 50.80943 13.51814 14324 ft 332 kts 58°
2026-04-14 13:16 50.82143 13.54919 13945 ft 330 kts 57°
2026-04-14 13:16 50.83568 13.57762 13526 ft 329 kts 43°
2026-04-14 13:16 50.85278 13.60137 13143 ft 325 kts 40°
2026-04-14 13:16 50.86988 13.62458 12762 ft 322 kts 40°
2026-04-14 13:17 50.88688 13.64774 12366 ft 320 kts 40°
2026-04-14 13:17 50.90367 13.67067 11977 ft 318 kts 40°
2026-04-14 13:17 50.92038 13.69351 11582 ft 316 kts 40°
2026-04-14 13:17 50.93699 13.71618 11184 ft 314 kts 40°
2026-04-14 13:18 50.95353 13.73875 10796 ft 313 kts 40°
2026-04-14 13:18 50.96996 13.76125 10401 ft 312 kts 40°
2026-04-14 13:18 50.98638 13.78377 10036 ft 310 kts 40°
2026-04-14 13:18 51.00246 13.80587 9785 ft 302 kts 40°
2026-04-14 13:19 51.01830 13.82767 9355 ft 301 kts 40°
2026-04-14 13:19 51.03386 13.84911 8947 ft 299 kts 40°
2026-04-14 13:19 51.04952 13.87069 8544 ft 296 kts 40°
2026-04-14 13:19 51.06507 13.89212 8144 ft 294 kts 40°
2026-04-14 13:20 51.08057 13.91348 7634 ft 295 kts 40°
2026-04-14 13:20 51.09608 13.93488 7213 ft 294 kts 40°
2026-04-14 13:20 51.11146 13.95612 6820 ft 291 kts 40°
2026-04-14 13:20 51.12671 13.97722 6421 ft 290 kts 39°
2026-04-14 13:21 51.14192 13.99826 6001 ft 287 kts 40°
2026-04-14 13:21 51.15675 14.01889 5597 ft 283 kts 40°
2026-04-14 13:21 51.17123 14.03951 5341 ft 274 kts 39°
2026-04-14 13:21 51.18646 14.05655 5083 ft 262 kts 20°
2026-04-14 13:22 51.20381 14.06039 4826 ft 247 kts 349°
2026-04-14 13:22 51.21911 14.05024 4569 ft 235 kts 321°
2026-04-14 13:22 51.23049 14.03235 4309 ft 227 kts 308°
2026-04-14 13:22 51.23984 14.01285 4055 ft 222 kts 306°
2026-04-14 13:23 51.24754 13.99181 3880 ft 217 kts 290°
2026-04-14 13:23 51.25070 13.96805 3784 ft 220 kts 273°
2026-04-14 13:23 51.24909 13.94371 3624 ft 222 kts 256°
2026-04-14 13:23 51.24273 13.92128 3399 ft 223 kts 238°
2026-04-14 13:24 51.23216 13.90309 3127 ft 223 kts 223°
2026-04-14 13:24 51.20907 13.87123 2529 ft 215 kts 223°
2026-04-14 13:24 51.19825 13.85629 2262 ft 196 kts 224°
2026-04-14 13:25 51.18825 13.84247 1989 ft 185 kts 224°
2026-04-14 13:25 51.17892 13.82957 1732 ft 171 kts 224°
2026-04-14 13:26 51.15436 13.79559 1061 ft 145 kts 224°
2026-04-14 13:26 51.14693 13.78538 845 ft 137 kts 225°
2026-04-14 13:26 51.13999 13.77573 717 ft 125 kts 223°
2026-04-14 13:26 51.13501 13.76888 712 ft 61 kts 221°
2026-04-14 13:27 51.13233 13.76510 712 ft 44 kts 220°
2026-04-14 13:27 51.13020 13.76231 714 ft 35 kts 220°
2026-04-14 13:27 51.12846 13.75991 710 ft 30 kts 221°
2026-04-14 13:27 51.12711 13.75831 713 ft 18 kts 182°
2026-04-14 13:28 51.12635 13.75953 710 ft 14 kts 130°
2026-04-14 13:28 51.12580 13.76050 715 ft 9 kts 129°
2026-04-14 13:28 51.12589 13.76117 713 ft 9 kts 38°
2026-04-14 13:28 51.12661 13.76220 713 ft 19 kts 43°
2026-04-14 13:29 51.12776 13.76379 713 ft 22 kts 45°
2026-04-14 13:29 51.12743 13.76546 713 ft 15 kts 135°
2026-04-14 13:29 51.12684 13.76653 711 ft 11 kts 129°
2026-04-14 13:29 51.12639 13.76666 711 ft 5 kts 212°
2026-04-14 13:30 51.12620 13.76638 711 ft 5 kts 221°
2026-04-14 13:30 51.12597 13.76606 712 ft 2 kts 221°
2026-04-14 13:30 51.12596 13.76605 711 ft 0 kts 221°